Time,TemperatureF,DewpointF,PressureIn,WindDirection,WindDirectionDegrees,WindSpeedMPH,WindSpeedGustMPH,Humidity,HourlyPrecipIn,Conditions,Clouds,dailyrainin,SoftwareType,DateUTC
2015-08-27 00:00:00,83.0,-99.9,-100.00,ESE,116,1.0,1.0,-999,-99.99,,,-99.99,,2015-08-27 06:00:00,
2015-08-27 00:54:00,83.0,-99.9,-100.00,ESE,116,1.0,1.0,-999,-99.99,,,-99.99,,2015-08-27 06:54:00,
2015-08-27 01:23:00,81.0,-99.9,-100.00,ESE,105,6.0,9.0,-999,-99.99,,,-99.99,,2015-08-27 07:23:00,
2015-08-27 01:34:00,81.0,-99.9,-100.00,ESE,105,6.0,9.0,-999,-99.99,,,-99.99,,2015-08-27 07:34:00,
2015-08-27 02:23:00,83.0,-99.9,-100.00,East,91,1.0,3.0,-999,-99.99,,,-99.99,,2015-08-27 08:23:00,
2015-08-27 02:34:00,83.0,-99.9,-100.00,East,91,1.0,3.0,-999,-99.99,,,-99.99,,2015-08-27 08:34:00,
2015-08-27 02:44:00,83.0,-99.9,-100.00,East,91,1.0,3.0,-999,-99.99,,,-99.99,,2015-08-27 08:44:00,
2015-08-27 03:03:00,82.0,-99.9,-100.00,WNW,296,3.0,3.0,-999,-99.99,,,-99.99,,2015-08-27 09:03:00,
2015-08-27 03:13:00,82.0,-99.9,-100.00,WNW,296,3.0,3.0,-999,-99.99,,,-99.99,,2015-08-27 09:13:00,
2015-08-27 03:30:00,80.0,-99.9,-100.00,ENE,73,2.0,3.0,-999,-99.99,,,-99.99,,2015-08-27 09:30:00,
2015-08-27 03:34:00,81.0,-99.9,-100.00,ESE,115,4.0,6.0,-999,-99.99,,,-99.99,,2015-08-27 09:34:00,
2015-08-27 03:44:00,81.0,-99.9,-100.00,ESE,115,4.0,6.0,-999,-99.99,,,-99.99,,2015-08-27 09:44:00,
2015-08-27 03:54:00,81.0,-99.9,-100.00,ESE,115,4.0,6.0,-999,-99.99,,,-99.99,,2015-08-27 09:54:00,
2015-08-27 04:24:00,80.0,-99.9,-100.00,ENE,73,2.0,3.0,-999,-99.99,,,-99.99,,2015-08-27 10:24:00,
2015-08-27 05:30:00,80.0,-99.9,-100.00,ENE,73,2.0,3.0,-999,-99.99,,,-99.99,,2015-08-27 11:30:00,
2015-08-27 06:24:00,80.0,-99.9,-100.00,ENE,73,2.0,3.0,-999,-99.99,,,-99.99,,2015-08-27 12:24:00,
2015-08-27 07:34:00,78.0,-99.9,-100.00,ENE,58,1.0,2.0,-999,-99.99,,,-99.99,,2015-08-27 13:34:00,
2015-08-27 07:44:00,78.0,-99.9,-100.00,ENE,58,1.0,2.0,-999,-99.99,,,-99.99,,2015-08-27 13:44:00,
2015-08-27 07:54:00,78.0,-99.9,-100.00,ENE,58,1.0,2.0,-999,-99.99,,,-99.99,,2015-08-27 13:54:00,
2015-08-27 12:24:00,94.0,-99.9,-100.00,West,261,3.0,5.0,-999,-99.99,,,-99.99,,2015-08-27 18:24:00,